Weather History for Washington, IA

Change the Weather History Date:

Sunday, May 26, 2013

  Actual Average Record
Temperature  
Mean Temperature 58 °F -  
Max Temperature 64 °F 72 °F 91 °F (2012)
Min Temperature 51 °F 53 °F 44 °F (2003)
Degree Days  
Heating Degree Days 8    
Growing Degree Days 8 (Base 50)    
Moisture  
Dew Point 56 °F    
Average Humidity 97    
Maximum Humidity 100    
Minimum Humidity 94    
Precipitation  
Precipitation 2.03 in - - ()
Sea Level Pressure  
Sea Level Pressure 30.12 in    
Wind  
Wind Speed 13 mph (ESE)    
Max Wind Speed 21 mph    
Max Gust Speed 29 mph    
Visibility 8 miles    
Events Rain    
Averages and records for this station are not official NWS values.
T = Trace of Precipitation, MM = Missing Value Source: NWS Daily Summary

Daily Weather History Graph

Daily Weather History Graph

Search for Another Location

Airport:

Trip Planner

Search our weather history database for the weather conditions in past years. The results will help you decide how hot, cold, wet, or windy it might be!

Date:

Astronomy

May. 26, 2013 Rise Set
Actual Time 5:39 AM CDT 8:28 PM CDT
Civil Twilight 5:06 AM CDT 9:01 PM CDT
Nautical Twilight 4:25 AM CDT 9:42 PM CDT
Astronomical Twilight 3:38 AM CDT 10:30 PM CDT
Moon 10:16 PM CDT (5/26) 7:08 AM CDT (5/26)
Length of Visible Light 15h 55m
Length of Day
14h 49m
Waning Gibbous, 96% of the Moon is Illuminated
May 26
Waning Gibbous
May 31
Last Quarter
Jun 8
New
Jun 16
First Quarter
Jun 23
Full

Hourly Weather History & Observations

Time (CDT) Temp. Dew Point Humidity Pressure Visibility Wind Dir Wind Speed Gust Speed Precip Events Conditions
12:15 AM 51.8 °F 50.0 °F 94% 30.22 in 10.0 mi ESE 11.5 mph - N/A   Overcast
12:35 AM 51.8 °F 50.0 °F 94% 30.21 in 10.0 mi ESE 12.7 mph - N/A   Overcast
12:55 AM 51.8 °F 50.0 °F 94% 30.20 in 10.0 mi ESE 13.8 mph - N/A   Overcast
1:15 AM 51.8 °F 50.0 °F 94% 30.20 in 10.0 mi ESE 12.7 mph - N/A   Overcast
1:35 AM 51.8 °F 50.0 °F 94% 30.20 in 10.0 mi ESE 10.4 mph - N/A   Overcast
1:55 AM 51.8 °F 50.0 °F 94% 30.20 in 7.0 mi SE 11.5 mph - N/A Rain Rain
2:15 AM 51.8 °F 50.0 °F 94% 30.20 in 4.0 mi ESE 10.4 mph - 0.12 in Rain Heavy Rain
2:35 AM 51.8 °F 50.0 °F 94% 30.20 in 10.0 mi ESE 9.2 mph - 0.15 in Rain Light Rain
2:55 AM 51.8 °F 50.0 °F 94% 30.19 in 10.0 mi ESE 11.5 mph - 0.18 in Rain Light Rain
3:15 AM 51.8 °F 50.0 °F 94% 30.20 in 10.0 mi ESE 9.2 mph - 0.05 in Rain Heavy Rain
3:35 AM 51.8 °F 50.0 °F 94% 30.20 in 7.0 mi East 9.2 mph - 0.11 in Rain Rain
3:55 AM 51.8 °F 51.8 °F 100% 30.18 in 7.0 mi SE 12.7 mph - 0.18 in Rain Rain
4:15 AM 51.8 °F 51.8 °F 100% 30.17 in 10.0 mi SE 12.7 mph - 0.06 in Rain Rain
4:35 AM 51.8 °F 51.8 °F 100% 30.16 in 10.0 mi ESE 16.1 mph - 0.13 in Rain Light Rain
4:55 AM 51.8 °F 51.8 °F 100% 30.16 in 5.0 mi SE 10.4 mph - 0.23 in Rain Heavy Rain
5:15 AM 51.8 °F 51.8 °F 100% 30.18 in 7.0 mi SSE 6.9 mph - 0.09 in Rain Heavy Rain
5:35 AM 51.8 °F 51.8 °F 100% 30.18 in 2.0 mi East 5.8 mph - 0.39 in Rain Heavy Rain
5:55 AM 51.8 °F 51.8 °F 100% 30.17 in 2.5 mi East 9.2 mph - 0.72 in Rain Heavy Rain
6:15 AM 51.8 °F 51.8 °F 100% 30.17 in 4.0 mi East 12.7 mph - 0.20 in Rain Heavy Rain
6:35 AM 51.8 °F 51.8 °F 100% 30.16 in 7.0 mi ESE 13.8 mph - 0.25 in Rain Light Rain
6:55 AM 51.8 °F 51.8 °F 100% 30.17 in 7.0 mi SE 15.0 mph - 0.30 in Rain Rain
7:15 AM 51.8 °F 51.8 °F 100% 30.18 in 10.0 mi ESE 11.5 mph - 0.01 in Rain Light Rain
7:35 AM 51.8 °F 51.8 °F 100% 30.17 in 7.0 mi SE 15.0 mph - 0.02 in Rain Light Rain
7:55 AM 51.8 °F 51.8 °F 100% 30.14 in 7.0 mi ESE 16.1 mph - 0.04 in Rain Light Rain
8:15 AM 51.8 °F 51.8 °F 100% 30.20 in 10.0 mi SSE 9.2 mph - 0.02 in Rain Light Rain
8:35 AM 53.6 °F 53.6 °F 100% 30.20 in 7.0 mi SE 10.4 mph - 0.04 in Rain Light Rain
8:55 AM 53.6 °F 53.6 °F 100% 30.17 in 10.0 mi ESE 13.8 mph - 0.06 in Rain Light Rain
9:15 AM 53.6 °F 53.6 °F 100% 30.18 in 7.0 mi East 12.7 mph - 0.01 in Rain Light Rain
9:35 AM 53.6 °F 53.6 °F 100% 30.17 in 10.0 mi ESE 15.0 mph - 0.02 in   Overcast
9:55 AM 53.6 °F 53.6 °F 100% 30.17 in 10.0 mi ESE 16.1 mph - 0.02 in   Overcast
10:15 AM 53.6 °F 53.6 °F 100% 30.16 in 7.0 mi SE 16.1 mph - N/A Rain Light Rain
10:35 AM 55.4 °F 55.4 °F 100% 30.17 in 10.0 mi SE 12.7 mph 17.3 mph N/A Rain Light Rain
10:55 AM 55.4 °F 55.4 °F 100% 30.16 in 7.0 mi SE 12.7 mph - 0.01 in Rain Light Rain
11:15 AM 55.4 °F 55.4 °F 100% 30.16 in 10.0 mi SE 12.7 mph - N/A   Overcast
11:35 AM 57.2 °F 57.2 °F 100% 30.15 in 10.0 mi SE 13.8 mph 17.3 mph N/A   Mostly Cloudy
11:55 AM 59.0 °F 57.2 °F 94% 30.15 in 10.0 mi East 13.8 mph - N/A   Overcast
12:15 PM 59.0 °F 57.2 °F 94% 30.15 in 10.0 mi ESE 16.1 mph - N/A   Overcast
12:35 PM 59.0 °F 57.2 °F 94% 30.14 in 10.0 mi ESE 16.1 mph - N/A   Overcast
12:55 PM 59.0 °F 57.2 °F 94% 30.14 in 10.0 mi ESE 16.1 mph - N/A   Overcast
1:15 PM 59.0 °F 57.2 °F 94% 30.14 in 10.0 mi East 13.8 mph - N/A   Overcast
1:35 PM 59.0 °F 57.2 °F 94% 30.13 in 7.0 mi East 15.0 mph - N/A Rain Light Rain
1:55 PM 59.0 °F 57.2 °F 94% 30.12 in 10.0 mi East 13.8 mph - 0.01 in Rain Light Rain
2:15 PM 59.0 °F 57.2 °F 94% 30.13 in 10.0 mi NE 11.5 mph - N/A   Overcast
2:35 PM 57.2 °F 57.2 °F 100% 30.12 in 5.0 mi ENE 12.7 mph - 0.03 in Rain Heavy Rain
2:55 PM 59.0 °F 57.2 °F 94% 30.11 in 5.0 mi ENE 13.8 mph - 0.04 in   Overcast
3:15 PM 57.2 °F 57.2 °F 100% 30.11 in 4.0 mi East 13.8 mph - N/A   Overcast
3:35 PM 57.2 °F 57.2 °F 100% 30.10 in 4.0 mi East 12.7 mph - N/A   Overcast
3:55 PM 57.2 °F 57.2 °F 100% 30.10 in 4.0 mi East 11.5 mph - 0.01 in Rain Light Rain
4:15 PM 60.8 °F 59.0 °F 94% 30.08 in 2.5 mi ESE 15.0 mph 18.4 mph N/A   Overcast
4:35 PM 60.8 °F 59.0 °F 94% 30.08 in 5.0 mi East 15.0 mph - N/A   Overcast
4:55 PM 60.8 °F 59.0 °F 94% 30.07 in 4.0 mi East 16.1 mph - N/A   Overcast
5:15 PM 60.8 °F 60.8 °F 100% 30.05 in 4.0 mi East 17.3 mph - N/A   Mostly Cloudy
5:35 PM 60.8 °F 60.8 °F 100% 30.04 in 4.0 mi East 15.0 mph - N/A   Overcast
5:55 PM 62.6 °F 60.8 °F 94% 30.04 in 5.0 mi ESE 18.4 mph - N/A   Overcast
6:15 PM 62.6 °F 62.6 °F 100% 30.02 in 7.0 mi ESE 20.7 mph 24.2 mph N/A   Scattered Clouds
6:35 PM 62.6 °F 60.8 °F 94% 30.02 in 10.0 mi SE 18.4 mph - N/A   Mostly Cloudy
6:55 PM 62.6 °F 60.8 °F 94% 30.08 in 10.0 mi North 19.6 mph 28.8 mph N/A   Mostly Cloudy
7:15 PM 60.8 °F 59.0 °F 94% 30.07 in 4.0 mi NE 16.1 mph - 0.06 in Rain Heavy Rain
7:35 PM 60.8 °F 60.8 °F 100% 30.08 in 7.0 mi NE 10.4 mph - 0.18 in Rain Rain
7:55 PM 60.8 °F 60.8 °F 100% 30.02 in 7.0 mi SSE 20.7 mph - 0.21 in Rain Light Rain
8:15 PM 60.8 °F 60.8 °F 100% 30.01 in 10.0 mi SSE 16.1 mph - N/A   Overcast
8:35 PM 60.8 °F 60.8 °F 100% 30.03 in 10.0 mi Calm Calm - 0.01 in Rain Light Rain
8:55 PM 60.8 °F 60.8 °F 100% 30.00 in 10.0 mi SSE 16.1 mph - 0.02 in Rain Light Rain
9:15 PM 62.6 °F 60.8 °F 94% 30.01 in 10.0 mi East 12.7 mph - N/A   Overcast
9:35 PM 62.6 °F 60.8 °F 94% 30.01 in 10.0 mi SSE 11.5 mph - N/A   Unknown
9:55 PM 62.6 °F 60.8 °F 94% 30.02 in 10.0 mi SE 9.2 mph - N/A   Overcast
10:15 PM 62.6 °F 62.6 °F 100% 30.01 in 10.0 mi SE 10.4 mph - N/A   Overcast
10:35 PM 62.6 °F 62.6 °F 100% 29.99 in 10.0 mi SE 17.3 mph - N/A   Overcast
10:55 PM 62.6 °F 62.6 °F 100% 29.97 in 10.0 mi SE 18.4 mph - N/A   Overcast
11:15 PM 62.6 °F 62.6 °F 100% 29.96 in 10.0 mi SE 16.1 mph 25.3 mph N/A   Overcast
11:35 PM 64.4 °F 62.6 °F 94% 29.98 in 10.0 mi ESE 10.4 mph - N/A   Scattered Clouds
11:55 PM 64.4 °F 62.6 °F 94% 30.00 in 10.0 mi NE 6.9 mph - N/A   Mostly Cloudy